TimeEDT,TemperatureF,Dew PointF,Humidity,Sea Level PressureIn,VisibilityMPH,Wind Direction,Wind SpeedMPH,Gust SpeedMPH,PrecipitationIn,Events,Conditions,WindDirDegrees,DateUTC
12:58 AM,61.2,56.1,83,30.13,10.0,Calm,Calm,-,N/A,,Scattered Clouds,0,2013-09-20 04:58:00
1:58 AM,61.0,55.2,81,30.13,10.0,Calm,Calm,-,N/A,,Clear,0,2013-09-20 05:58:00
2:58 AM,61.2,57.9,89,30.13,10.0,Calm,Calm,-,N/A,,Mostly Cloudy,0,2013-09-20 06:58:00
3:58 AM,59.5,57.7,94,30.11,10.0,Calm,Calm,-,N/A,,Clear,0,2013-09-20 07:58:00
4:58 AM,58.1,57.7,99,30.11,10.0,West,2.3,-,N/A,,Scattered Clouds,280,2013-09-20 08:58:00
5:58 AM,57.7,57.4,99,30.12,10.0,West,2.3,-,N/A,,Partly Cloudy,280,2013-09-20 09:58:00
6:58 AM,58.8,58.5,99,30.13,10.0,Calm,Calm,-,N/A,,Overcast,0,2013-09-20 10:58:00
7:58 AM,62.6,60.4,93,30.12,10.0,West,1.2,-,N/A,,Overcast,260,2013-09-20 11:58:00
8:58 AM,68.0,59.0,73,30.13,10.0,Variable,2.3,-,N/A,,Overcast,0,2013-09-20 12:58:00
9:58 AM,72.1,56.3,57,30.13,10.0,Variable,3.5,-,N/A,,Overcast,0,2013-09-20 13:58:00
10:58 AM,73.6,56.8,56,30.12,10.0,South,3.5,-,N/A,,Overcast,170,2013-09-20 14:58:00
11:58 AM,74.7,57.7,55,30.11,10.0,ESE,6.9,-,N/A,,Overcast,120,2013-09-20 15:58:00
12:58 PM,76.3,56.7,51,30.10,10.0,ESE,8.1,-,N/A,,Clear,110,2013-09-20 16:58:00
1:58 PM,77.0,56.8,50,30.08,10.0,East,8.1,-,N/A,,Clear,90,2013-09-20 17:58:00
2:58 PM,76.3,56.8,51,30.06,10.0,East,10.4,-,N/A,,Clear,90,2013-09-20 18:58:00
3:58 PM,75.9,58.6,55,30.06,10.0,East,9.2,-,N/A,,Clear,80,2013-09-20 19:58:00
4:58 PM,73.9,58.1,58,30.05,10.0,East,10.4,-,N/A,,Clear,90,2013-09-20 20:58:00
5:58 PM,72.3,58.5,62,30.04,10.0,East,11.5,-,N/A,,Clear,100,2013-09-20 21:58:00
6:58 PM,69.6,57.6,65,30.02,10.0,ESE,6.9,-,N/A,,Clear,120,2013-09-20 22:58:00
7:58 PM,68.4,57.6,68,30.03,10.0,SE,8.1,-,N/A,,Clear,130,2013-09-20 23:58:00
8:58 PM,67.6,58.1,71,30.04,10.0,SSE,4.6,-,N/A,,Clear,160,2013-09-21 00:58:00
9:58 PM,64.4,57.4,78,30.04,10.0,South,2.3,-,N/A,,Clear,170,2013-09-21 01:58:00
10:58 PM,65.1,57.2,75,30.03,10.0,Variable,1.2,-,N/A,,Clear,0,2013-09-21 02:58:00
11:58 PM,60.1,57.2,90,30.03,10.0,SSW,1.2,-,N/A,,Scattered Clouds,200,2013-09-21 03:58:00